contact:dominique.lefevre@mio.osupytheas.fr, maurice.libes@osupytheas.fr
Project:EMSO Ligure-ouest http://www.emso-fr.org/EMSO-France
Sensor Aquadopp, line 13 Serial AQD14315 
DOI : "https://doi.org/10.17882/74513; https://doi.org/10.17882/83244" 
Title:EMSO Ligure Ouest : Data ligne ALBATROSS capteur AQUADOPP - deploiement 2021
Id,Date,Profondeur,Latitude,Longitude,X_East,Y_North,Z_Up,Amplitude_X,Amplitude_Y,Amplitude_Z,Batterie,SoundSpeed,Heading,Pitch,Roll,Pressure,Temperature,Speed,Direction
, , m, degrees North, degrees East, m.s-1, m.s-1,m.s-1, 1, 1, 1, Volt, m.s-1, degree, degree, degree, dbar, degree_C, m.s-1, degree
13,2022-02-14T22:00:00,2400.0,42.79,6.0312,0.071,0.006,-0.009,74.0,66.0,68.0,12.2,1504.8,67.9,-0.5,-0.3,2394.537,13.33,0.071,85.2
13,2022-02-14T22:30:00,2400.0,42.79,6.0312,0.059,-0.008,-0.007,71.0,66.0,67.0,12.2,1504.8,70.6,-0.5,-0.4,2394.575,13.33,0.059,97.7
13,2022-02-14T23:00:00,2400.0,42.79,6.0312,0.066,0.019,0.008,74.0,66.0,66.0,12.2,1504.8,72.2,-0.3,-0.2,2394.544,13.33,0.068,73.9
13,2022-02-14T23:30:00,2400.0,42.79,6.0312,0.083,-0.011,-0.028,75.0,66.0,68.0,12.2,1504.8,87.7,-0.2,-0.2,2394.549,13.33,0.083,97.5
13,2022-02-15T00:00:00,2400.0,42.79,6.0312,0.075,-0.029,0.004,74.0,68.0,71.0,12.2,1504.8,87.4,-0.5,-0.5,2394.514,13.33,0.08,111.1
13,2022-02-15T00:30:00,2400.0,42.79,6.0312,0.066,-0.038,-0.003,74.0,67.0,69.0,12.2,1504.8,98.8,-0.3,-0.4,2394.545,13.33,0.076,119.9
13,2022-02-15T01:00:00,2400.0,42.79,6.0312,0.04,-0.06,-0.014,76.0,67.0,71.0,12.2,1504.8,97.2,-0.3,-0.2,2394.497,13.33,0.072,146.3
13,2022-02-15T01:30:00,2400.0,42.79,6.0312,0.045,-0.025,-0.028,75.0,68.0,70.0,12.2,1504.8,84.3,-0.7,-0.4,2394.522,13.33,0.051,119.1
13,2022-02-15T02:00:00,2400.0,42.79,6.0312,0.035,-0.025,-0.017,76.0,69.0,68.0,12.2,1504.8,91.0,0.1,-0.3,2394.555,13.33,0.043,125.5
13,2022-02-15T02:30:00,2400.0,42.79,6.0312,0.039,-0.045,-0.026,75.0,67.0,68.0,12.2,1504.8,89.3,0.3,-0.3,2394.545,13.33,0.059,139.1
13,2022-02-15T03:00:00,2400.0,42.79,6.0312,0.03,-0.036,-0.006,73.0,65.0,67.0,12.2,1504.8,87.6,0.2,-0.2,2394.587,13.33,0.046,140.2
13,2022-02-15T03:30:00,2400.0,42.79,6.0312,0.025,-0.013,-0.016,75.0,65.0,68.0,12.2,1504.8,89.5,-0.5,-0.2,2394.589,13.33,0.028,117.5
13,2022-02-15T04:00:00,2400.0,42.79,6.0312,0.044,-0.039,-0.044,73.0,68.0,67.0,12.2,1504.8,84.7,-0.2,-0.2,2394.643,13.33,0.058,131.6
13,2022-02-15T04:30:00,2400.0,42.79,6.0312,0.029,0.0,-0.011,76.0,69.0,71.0,12.2,1504.8,85.0,-0.4,-0.2,2394.664,13.33,0.028,90.0
13,2022-02-15T05:00:00,2400.0,42.79,6.0312,0.019,-0.023,-0.009,76.0,68.0,70.0,12.2,1504.8,84.7,-0.4,-0.1,2394.677,13.33,0.029,140.4
13,2022-02-15T05:30:00,2400.0,42.79,6.0312,-0.004,-0.022,-0.031,72.0,68.0,69.0,12.2,1504.8,79.2,-0.3,-0.3,2394.715,13.33,0.022,190.3
13,2022-02-15T06:00:00,2400.0,42.79,6.0312,-0.001,-0.042,0.005,76.0,68.0,66.0,12.2,1504.8,81.8,-0.2,-0.2,2394.718,13.33,0.042,181.4
13,2022-02-15T06:30:00,2400.0,42.79,6.0312,0.032,0.002,-0.018,73.0,67.0,72.0,12.2,1504.8,76.7,-0.1,-0.3,2394.734,13.33,0.032,86.4
13,2022-02-15T07:00:00,2400.0,42.79,6.0312,-0.005,-0.008,0.0,77.0,68.0,67.0,12.2,1504.8,73.1,-0.2,-0.4,2394.771,13.33,0.009,212.0
13,2022-02-15T07:30:00,2400.0,42.79,6.0312,0.015,-0.019,-0.003,74.0,68.0,69.0,12.2,1504.8,71.3,-0.2,-0.2,2394.759,13.33,0.024,141.7
13,2022-02-15T08:00:00,2400.0,42.79,6.0312,0.002,0.0,-0.009,71.0,67.0,67.0,12.2,1504.8,77.5,-0.2,-0.3,2394.773,13.33,0.002,90.0
13,2022-02-15T08:30:00,2400.0,42.79,6.0312,0.024,0.005,-0.012,75.0,69.0,73.0,12.2,1504.8,73.5,-0.2,-0.3,2394.746,13.33,0.024,78.2
13,2022-02-15T09:00:00,2400.0,42.79,6.0312,0.022,0.043,0.016,72.0,66.0,67.0,12.2,1504.8,74.0,-0.2,-0.2,2394.75,13.33,0.048,27.1
13,2022-02-15T09:30:00,2400.0,42.79,6.0312,0.026,-0.012,-0.011,72.0,64.0,67.0,12.2,1504.8,74.2,-0.2,-0.4,2394.749,13.33,0.028,114.8
13,2022-02-15T10:00:00,2400.0,42.79,6.0312,0.039,0.024,-0.036,72.0,69.0,70.0,12.2,1504.8,78.6,-0.2,-0.3,2394.724,13.33,0.045,58.4
13,2022-02-15T10:30:00,2400.0,42.79,6.0312,0.053,0.009,-0.04,75.0,67.0,69.0,12.2,1504.8,87.5,-0.2,-0.4,2394.689,13.33,0.053,80.4
13,2022-02-15T11:00:00,2400.0,42.79,6.0312,0.066,0.0,-0.011,76.0,66.0,69.0,12.2,1504.8,88.9,-0.2,-0.2,2394.631,13.33,0.065,90.0
13,2022-02-15T11:30:00,2400.0,42.79,6.0312,0.065,0.014,0.017,75.0,68.0,70.0,12.2,1504.8,72.7,-0.3,-0.2,2394.65,13.33,0.066,77.8
13,2022-02-15T12:00:00,2400.0,42.79,6.0312,0.049,-0.017,-0.017,75.0,66.0,67.0,12.2,1504.8,83.9,-0.3,-0.3,2394.608,13.33,0.051,109.1
13,2022-02-15T12:30:00,2400.0,42.79,6.0312,0.046,-0.015,-0.016,73.0,67.0,67.0,12.2,1504.8,85.9,-0.2,-0.3,2394.565,13.33,0.048,108.1
13,2022-02-15T13:00:00,2400.0,42.79,6.0312,0.083,0.013,-0.014,71.0,65.0,68.0,12.2,1504.8,81.4,-0.4,-0.5,2394.607,13.33,0.084,81.1
13,2022-02-15T13:30:00,2400.0,42.79,6.0312,0.062,0.012,-0.003,72.0,63.0,67.0,12.2,1504.8,67.1,-0.4,-0.2,2394.557,13.33,0.063,79.0
13,2022-02-15T14:00:00,2400.0,42.79,6.0312,0.046,-0.032,-0.009,70.0,63.0,66.0,12.2,1504.8,100.3,-0.4,-0.3,2394.543,13.33,0.056,124.8
13,2022-02-15T14:30:00,2400.0,42.79,6.0312,0.064,-0.004,-0.017,70.0,63.0,64.0,12.2,1504.8,71.3,-0.1,-0.3,2394.575,13.33,0.064,93.6
13,2022-02-15T15:00:00,2400.0,42.79,6.0312,0.043,-0.03,-0.017,68.0,62.0,64.0,12.2,1504.8,100.9,-0.5,-0.4,2394.583,13.33,0.052,124.9
13,2022-02-15T15:30:00,2400.0,42.79,6.0312,0.086,-0.014,0.02,68.0,62.0,63.0,12.2,1504.8,73.7,-0.1,-0.2,2394.595,13.33,0.087,99.2
13,2022-02-15T16:00:00,2400.0,42.79,6.0312,0.042,-0.044,-0.013,69.0,63.0,65.0,12.2,1504.8,110.0,-0.4,-0.3,2394.606,13.33,0.06,136.3
13,2022-02-15T16:30:00,2400.0,42.79,6.0312,0.062,-0.047,-0.027,68.0,62.0,63.0,12.2,1504.8,101.7,-0.2,-0.4,2394.586,13.33,0.077,127.2
13,2022-02-15T17:00:00,2400.0,42.79,6.0312,0.046,-0.034,-0.034,69.0,64.0,64.0,12.2,1504.8,97.7,-0.8,-0.6,2394.608,13.33,0.057,126.5
13,2022-02-15T17:30:00,2400.0,42.79,6.0312,0.054,-0.03,-0.023,69.0,61.0,64.0,12.2,1504.8,81.3,-0.3,-0.3,2394.623,13.33,0.061,119.1
13,2022-02-15T18:00:00,2400.0,42.79,6.0312,0.059,-0.037,-0.049,70.0,62.0,64.0,12.2,1504.8,91.8,-0.8,-0.4,2394.691,13.33,0.069,122.1
13,2022-02-15T18:30:00,2400.0,42.79,6.0312,0.049,-0.022,0.025,69.0,63.0,64.0,12.2,1504.8,89.7,-0.5,-0.2,2394.656,13.33,0.053,114.2
13,2022-02-15T19:00:00,2400.0,42.79,6.0312,0.051,-0.002,-0.035,73.0,62.0,63.0,12.2,1504.8,87.5,-0.6,-0.2,2394.655,13.33,0.051,92.2
13,2022-02-15T19:30:00,2400.0,42.79,6.0312,0.03,-0.051,-0.034,72.0,63.0,68.0,12.2,1504.8,92.2,-0.3,-0.2,2394.628,13.33,0.059,149.5
13,2022-02-15T20:00:00,2400.0,42.79,6.0312,0.041,-0.028,0.011,71.0,64.0,66.0,12.2,1504.8,93.8,-0.1,-0.2,2394.625,13.33,0.049,124.3
13,2022-02-15T20:30:00,2400.0,42.79,6.0312,0.023,-0.037,-0.01,73.0,63.0,65.0,12.2,1504.8,93.3,-0.3,-0.2,2394.668,13.33,0.043,148.1
13,2022-02-15T21:00:00,2400.0,42.79,6.0312,0.005,-0.033,0.004,71.0,61.0,64.0,12.2,1504.8,89.6,-0.3,-0.3,2394.583,13.33,0.033,171.4
13,2022-02-15T21:30:00,2400.0,42.79,6.0312,0.035,-0.005,-0.003,73.0,63.0,67.0,12.2,1504.8,88.3,-0.4,-0.2,2394.591,13.33,0.035,98.1
